Weather in Salacgriva

Latvia     57°45′50″N   24°21′58″E
temp.,
°C
wind,
m/s
gust,
m/s
humid.,
%
clouds,
%
prec.,
mm/h
press.,
hPa
HPBL,
m
26 september, sun
sun2600:00+12wnw813790 0.0 1011574
03:00+12nw813775 0.0 1013595
06:00+11nnw814775 0.0 1016685
09:00+11nnw610805 0.0 1019661
12:00+12nnw67741 0.0 1022555
15:00+12nnw67735 0.0 1023466
18:00+12nnw57745 0.0 1024181
21:00+11nne45754 0.0 102591
27 september, mon
mon2700:00+9e35752 0.0 1026107
03:00+8e34805 0.0 1027115
06:00+8e348540 0.0 1028119
09:00+8ese45825 0.0 1029173
12:00+12ese356814 0.0 1029384
15:00+14ene13661 0.0 1029334
18:00+14e23660 0.0 102839
21:00+11e47795 0.0 1029126
28 september, tue
tue2800:00+9ese59833 0.0 1029193
03:00+9ese47865 0.0 1030162
06:00+8se46871 0.0 1030159
09:00+9ese47850 0.0 1030194
12:00+12se45690 0.0 1031412
15:00+14sse24638 0.0 1030459
18:00+14ese246354 0.0 103082
21:00+12se466598 0.0 1031106
29 september, wed
wed2900:00+12ese3566100 0.0 103281
03:00+11ese4669100 0.0 1032132
06:00+11se4676100 0.0 1032195
09:00+10se4679100 0.0 1032254
12:00+11se5774100 0.0 1033387
15:00+12se5771100 0.0 1032492
18:00+12se4672100 0.0 1032281
21:00+11se5975100 0.1 1032319
30 september, thu
thu3000:00+9se697990 0.0 1032291
03:00+10se5878100 0.0 1032309
06:00+9se597597 0.0 1031319
09:00+8se7117532 0.0 1031349
12:00+11sse78637 0.0 1031726
15:00+12sse686392 0.0 1030674
18:00+12sse6967100 0.0 1030405
21:00+11se61271100 0.0 1030472